Погода в Джирофте

Иран     28°39′54″N   57°44′17″E
темп.,
°C
ветер,
м/с
пор.,
м/с
влажн.,
%
обл.,
%
осадки,
мм/ч
давл.,
гПа
погр.,
м
8 марта, пн
пн800:30+19вюв23280 0.0 101323
03:30+16св11300 0.0 101223
06:30+16в11360 0.0 101423
09:30+22ю22250 0.0 1014903
12:30+24ю33190 0.0 10111644
15:30+25ююв33180 0.0 10091655
18:30+24юв22210 0.0 101026
21:30+21вюв22260 0.0 101223
9 марта, вт
вт900:30+19вюв12370 0.0 101125
03:30+16вюв11460 0.0 101223
06:30+16ююв11450 0.0 101323
09:30+22ююв21260 0.0 1014437
12:30+27ююз45140 0.0 10121411
15:30+28в33130 0.0 10101239
18:30+25юв45150 0.0 101183
21:30+23юв57230 0.0 101396
10 марта, ср
ср1000:30+21ююв33290 0.0 101225
03:30+19ююв23370 0.0 101124
06:30+17вюв11360 0.0 101323
09:30+23ююв21210 0.0 1013952
12:30+28ююв55130 0.0 10101505
15:30+29юв78120 0.0 10083577
18:30+26ююз611110 0.0 1010246
21:30+22вюв68290 0.0 1012194
11 марта, чт
чт1100:30+18св11400 0.0 101327
03:30+17с23250 0.0 101230
06:30+16с23260 0.0 101432
09:30+21юз11230 0.0 1015904
12:30+24ю33190 0.0 10121730
15:30+25ю44170 0.0 10101607
18:30+23вюв33190 0.0 101173
21:30+21вюв11230 0.0 101223
12 марта, пт
пт1200:30+19юв23220 0.0 101223
03:30+17в22250 0.0 101123
06:30+16юв11280 0.0 101323
09:30+22ююв231714 0.0 1013503
12:30+27ююв881416 0.0 10091957
15:30+28ю11111325 0.0 10062506
18:30+24ю8112876 0.0 1007612
21:30+21юв883484 0.0 1009187